Date String (YYYY-MM-DD hh:mm:ss) UTC,Instrument flags,Ambient pressure (hPa),Sample flow (lpm),Bypass flow (lpm),Sample temperature (°C),Ambient temperature (°C),ASC tube jacket temperature (°C),LED temperature (°C),Box temperature (°C),Sample RH (%),Span deviation,Mass concentration (μg/m³),Mass concentration (μg/m³),Mass concentration (μg/m³)
DateTimeUTC,F1_M11,P_M11,Q1_M11,Q2_M11,T1_M11,T2_M11,T3_M11,T4_M11,T5_M11,U1_M11,ZSPAN_M11,X0_M11,X2_M11,X1_M11
2021-12-17 17:00:00,,0821.7,5.00,0.00,22.6,22.0,00.0,31.6,24.1,06.8,0000.0,0000.71,0000.38,0000.24
2021-12-17 17:01:00,,0821.7,5.00,0.00,22.6,21.9,00.0,31.6,24.1,06.8,0000.0,0000.78,0000.38,0000.24
2021-12-17 17:02:00,,0821.8,5.01,0.00,22.5,21.7,00.0,31.6,24.0,06.8,0000.0,0000.74,0000.37,0000.23
2021-12-17 17:03:00,,0821.8,4.99,0.00,22.5,21.6,00.0,31.6,23.9,06.7,0000.0,0000.66,0000.33,0000.23
2021-12-17 17:04:00,,0821.8,4.99,0.00,22.5,21.6,00.0,31.6,23.9,06.8,0000.0,0000.70,0000.35,0000.24
2021-12-17 17:05:00,,0821.9,5.00,0.00,22.4,21.5,00.0,31.5,23.9,06.8,0000.0,0000.71,0000.36,0000.24
2021-12-17 17:06:00,,0822.0,5.00,0.00,22.4,21.4,00.0,31.5,23.9,06.8,0000.0,0000.73,0000.39,0000.25
2021-12-17 17:07:00,,0822.0,4.99,0.00,22.4,21.3,00.0,31.5,23.9,06.7,0000.0,0000.86,0000.43,0000.25
2021-12-17 17:08:00,,0822.1,5.01,0.00,22.4,21.3,00.0,31.5,24.0,06.7,0000.0,0000.95,0000.45,0000.25
2021-12-17 17:09:00,,0822.0,4.99,0.00,22.4,21.3,00.0,31.5,23.9,06.7,0000.0,0000.96,0000.46,0000.25
2021-12-17 17:10:00,,0822.0,5.00,0.00,22.4,21.2,00.0,31.5,23.8,06.7,0000.0,0000.97,0000.46,0000.25
2021-12-17 17:11:00,,0822.0,5.00,0.00,22.3,21.2,00.0,31.5,23.8,06.8,0000.0,0000.95,0000.46,0000.25
2021-12-17 17:12:00,,0822.1,5.02,0.00,22.3,21.2,00.0,31.5,23.9,06.8,0000.0,0001.00,0000.47,0000.26
2021-12-17 17:13:00,,0822.1,5.00,0.00,22.3,21.1,00.0,31.5,23.9,06.8,0000.0,0001.03,0000.48,0000.27
2021-12-17 17:14:00,,0822.1,5.00,0.00,22.3,21.1,00.0,31.4,23.9,06.8,0000.0,0001.10,0000.50,0000.27
2021-12-17 17:15:00,,0822.1,4.99,0.00,22.3,21.2,00.0,31.4,23.9,06.8,0000.0,0001.16,0000.52,0000.27
2021-12-17 17:16:00,,0822.1,4.99,0.00,22.4,22.0,00.0,31.5,24.2,06.9,0000.0,0001.30,0000.53,0000.27
2021-12-17 17:17:00,,0822.1,4.99,0.00,22.5,23.0,00.0,31.5,24.5,06.9,0000.0,0001.37,0000.53,0000.27
2021-12-17 17:18:00,,0822.2,5.01,0.00,22.7,23.5,00.0,31.6,24.7,06.8,0000.0,0001.26,0000.49,0000.26
2021-12-17 17:19:00,,0822.2,5.00,0.00,22.7,23.2,00.0,31.6,24.7,06.6,0000.0,0001.20,0000.48,0000.26
2021-12-17 17:20:00,,0822.2,5.00,0.00,22.7,22.9,00.0,31.6,24.5,06.6,0000.0,0001.19,0000.48,0000.26
2021-12-17 17:21:00,,0822.2,4.99,0.00,22.6,22.5,00.0,31.6,24.3,06.7,0000.0,0001.20,0000.47,0000.26
2021-12-17 17:22:00,,0822.2,5.00,0.00,22.6,22.2,00.0,31.6,24.1,06.8,0000.0,0001.19,0000.47,0000.26
2021-12-17 17:23:00,,0822.2,5.01,0.00,22.5,22.0,00.0,31.6,24.0,06.8,0000.0,0001.13,0000.48,0000.25
2021-12-17 17:24:00,,0822.3,4.99,0.00,22.4,21.8,00.0,31.6,23.9,06.8,0000.0,0001.12,0000.48,0000.25
2021-12-17 17:25:00,,0822.3,4.98,0.00,22.3,21.6,00.0,31.5,23.9,06.9,0000.0,0001.06,0000.46,0000.25
2021-12-17 17:26:00,,0822.3,5.02,0.00,22.3,21.5,00.0,31.5,23.8,06.9,0000.0,0000.97,0000.43,0000.25
2021-12-17 17:27:00,,0822.2,4.99,0.00,22.2,21.3,00.0,31.5,23.7,07.0,0000.0,0000.84,0000.42,0000.24
2021-12-17 17:28:00,,0822.2,5.01,0.00,22.1,21.2,00.0,31.4,23.6,07.0,0000.0,0000.70,0000.39,0000.24
2021-12-17 17:29:00,,0822.2,4.99,0.00,22.1,21.1,00.0,31.4,23.5,07.1,0000.0,0000.64,0000.37,0000.24
2021-12-17 17:30:00,,0822.2,5.01,0.00,22.0,21.1,00.0,31.4,23.5,07.1,0000.0,0000.64,0000.37,0000.24
2021-12-17 17:31:00,,0822.2,5.00,0.00,22.0,21.0,00.0,31.3,23.4,07.0,0000.0,0000.66,0000.39,0000.25
2021-12-17 17:32:00,,0822.2,4.99,0.00,21.9,21.0,00.0,31.3,23.4,07.0,0000.0,0000.66,0000.39,0000.25
2021-12-17 17:33:00,,0822.2,5.00,0.00,21.9,20.9,00.0,31.2,23.3,06.9,0000.0,0000.63,0000.38,0000.24
2021-12-17 17:34:00,,0822.1,5.01,0.00,21.9,20.8,00.0,31.2,23.3,06.9,0000.0,0000.59,0000.36,0000.25
2021-12-17 17:35:00,,0822.1,4.99,0.00,21.8,20.8,00.0,31.2,23.2,07.0,0000.0,0000.84,0000.37,0000.25
2021-12-17 17:36:00,,0822.1,5.01,0.00,21.9,21.4,00.0,31.2,23.4,07.1,0000.0,0001.28,0000.40,0000.25
2021-12-17 17:37:00,,0822.2,5.00,0.00,22.0,22.4,00.0,31.2,23.8,07.1,0000.0,0001.36,0000.43,0000.25
2021-12-17 17:38:00,,0822.2,4.99,0.00,22.2,23.1,00.0,31.2,24.1,07.0,0000.0,0001.35,0000.43,0000.25
2021-12-17 17:39:00,,0822.1,5.00,0.00,22.2,22.9,00.0,31.2,24.1,07.0,0000.0,0001.41,0000.44,0000.25
2021-12-17 17:40:00,,0822.1,5.01,0.00,22.2,22.6,00.0,31.2,24.0,07.0,0000.0,0001.42,0000.45,0000.25
2021-12-17 17:41:00,,0822.2,5.00,0.00,22.2,22.2,00.0,31.2,23.8,07.0,0000.0,0001.44,0000.45,0000.24
2021-12-17 17:42:00,,0822.1,5.00,0.00,22.1,22.0,00.0,31.2,23.7,07.0,0000.0,0001.44,0000.44,0000.24
2021-12-17 17:43:00,,0822.1,5.00,0.00,22.1,21.7,00.0,31.2,23.6,07.0,0000.0,0001.44,0000.44,0000.24
2021-12-17 17:44:00,,0822.0,5.01,0.00,22.0,21.5,00.0,31.2,23.5,07.1,0000.0,0001.46,0000.45,0000.24
2021-12-17 17:45:00,,0822.0,5.01,0.00,22.0,21.4,00.0,31.2,23.5,07.0,0000.0,0001.46,0000.46,0000.24
2021-12-17 17:46:00,,0822.0,4.99,0.00,21.9,21.3,00.0,31.1,23.4,07.0,0000.0,0001.35,0000.45,0000.23
2021-12-17 17:47:00,,0822.0,5.00,0.00,21.9,21.2,00.0,31.1,23.4,06.9,0000.0,0000.78,0000.42,0000.23
2021-12-17 17:48:00,,0821.9,5.00,0.00,21.9,21.1,00.0,31.1,23.4,06.9,0000.0,0000.67,0000.38,0000.23
2021-12-17 17:49:00,,0821.9,4.99,0.00,21.8,21.0,00.0,31.1,23.3,06.9,0000.0,0000.65,0000.37,0000.23
2021-12-17 17:50:00,,0821.9,5.02,0.00,21.8,21.0,00.0,31.1,23.3,07.0,0000.0,0000.62,0000.36,0000.23
2021-12-17 17:51:00,,0821.9,4.99,0.00,21.8,21.0,00.0,31.0,23.3,07.0,0000.0,0000.61,0000.35,0000.23
2021-12-17 17:52:00,,0821.9,5.00,0.00,21.8,20.9,00.0,31.0,23.2,07.0,0000.0,0000.57,0000.34,0000.22
2021-12-17 17:53:00,,0821.9,4.99,0.00,21.8,20.9,00.0,31.0,23.3,07.1,0000.0,0000.52,0000.32,0000.21
2021-12-17 17:54:00,,0822.0,5.00,0.00,21.7,20.9,00.0,31.0,23.1,07.1,0000.0,0001.09,0000.31,0000.21
2021-12-17 17:55:00,,0822.0,5.01,0.00,21.7,21.3,00.0,31.0,23.3,07.1,0000.0,0001.71,0000.33,0000.22
2021-12-17 17:56:00,,0821.9,5.00,0.00,21.9,22.3,00.0,31.0,23.7,07.1,0000.0,0001.75,0000.34,0000.23
2021-12-17 17:57:00,,0822.0,4.99,0.00,22.1,23.1,00.0,31.1,24.1,07.0,0000.0,0001.76,0000.34,0000.22
2021-12-17 17:58:00,,0821.9,5.00,0.00,22.2,23.1,00.0,31.1,24.2,06.9,0000.0,0001.80,0000.35,0000.22
2021-12-17 17:59:00,,0821.9,5.00,0.00,22.2,22.7,00.0,31.1,24.1,07.0,0000.0,0002.45,0000.38,0000.22
